Location: Hylvaty SDH
(49.9612°N, 16.4057°E)
Time: 12:33:51
(UTC+01:00)

Tiros 1 - Pass Details

Date: 11 October 2020
Orbit: 630 x 663 km, 48.4° (Epoch: 28 October)

Event Time Altitude Azimuth Distance (km) Brightness Sun altitude
Rises 15:47:10 0° 281° (WNW) 2,950 11.1 19.9°
Reaches altitude 10° 15:49:37 10° 274° (W) 2,044 10.6 19.6°
Maximum altitude 15:53:58 38° 207° (SSW) 994 9.4 19.1°
Drops below altitude 10° 15:58:20 10° 139° (SE) 2,057 9.8 18.5°
Sets 16:00:48 0° 132° (SE) 2,971 10.4 18.2°
